Weather History for K14Y - January, 2014

Change the Weather History Date:

Wednesday, January 15, 2014

  Actual Average (KAXN) Record (KAXN)
Temperature  
Mean Temperature 14 °F -  
Max Temperature 32 °F 16 °F 36 °F (1973)
Min Temperature -4 °F -1 °F -33 °F (1972)
Degree Days  
Heating Degree Days 51    
Moisture  
Dew Point 6 °F    
Average Humidity 83    
Maximum Humidity 93    
Minimum Humidity 73    
Precipitation  
Precipitation 0.00 in - - ()
Sea Level Pressure  
Sea Level Pressure 29.78 in    
Wind  
Wind Speed 10 mph (SSW)    
Max Wind Speed 22 mph    
Max Gust Speed 26 mph    
Visibility 9 miles    
Events Snow    
Averages and records for this station are not official NWS values.
T = Trace of Precipitation, MM = Missing Value Source: NWS Daily Summary

Daily Weather History Graph

Daily Weather History Graph

Search for Another Location

Airport or City:

Trip Planner

Search our weather history database for the weather conditions in past years. The results will help you decide how hot, cold, wet, or windy it might be!

Date:

Astronomy

Jan. 15, 2014 Rise Set
Actual Time 7:57 AM CST 5:01 PM CST
Civil Twilight 7:23 AM CST 5:34 PM CST
Nautical Twilight 6:46 AM CST 6:11 PM CST
Astronomical Twilight 6:10 AM CST 6:47 PM CST
Moon 5:03 PM CST (1/15) 7:10 AM CST (1/15)
Length of Visible Light 10h 11m
Length of Day
9h 04m
Full, 100% of the Moon is Illuminated
Jan 15
Full
Jan 15
Full
Jan 23
Last Quarter
Jan 30
New
Feb 6
First Quarter

Hourly Weather History & Observations

Time (CST) Temp. Windchill Dew Point Humidity Pressure Visibility Wind Dir Wind Speed Gust Speed Precip Events Conditions
12:04 AM 6.8 °F -6.9 °F 1.4 °F 79% 30.14 in 10.0 mi NW 9.2 mph - N/A   Overcast
12:24 AM 6.8 °F -8.6 °F 1.4 °F 79% 30.13 in 10.0 mi NW 11.5 mph 17.3 mph N/A   Overcast
12:44 AM 6.8 °F -10.0 °F 1.4 °F 79% 30.12 in 7.0 mi NW 13.8 mph 18.4 mph N/A   Overcast
1:04 AM 6.8 °F -7.8 °F 1.4 °F 79% 30.11 in 10.0 mi NW 10.4 mph 18.4 mph N/A   Overcast
1:24 AM 6.8 °F -8.6 °F 1.4 °F 79% 30.11 in 7.0 mi NW 11.5 mph 20.7 mph N/A   Overcast
1:44 AM 6.8 °F -5.9 °F 1.4 °F 79% 30.10 in 10.0 mi NW 8.1 mph - N/A   Overcast
2:05 AM 6.8 °F -7.8 °F 1.4 °F 79% 30.10 in 10.0 mi NW 10.4 mph - N/A   Overcast
2:24 AM 6.8 °F -6.9 °F 1.4 °F 79% 30.10 in 10.0 mi NW 9.2 mph - N/A   Overcast
2:44 AM 6.8 °F -4.8 °F 1.4 °F 79% 30.10 in 10.0 mi NW 6.9 mph - N/A   Overcast
3:05 AM 6.8 °F -4.8 °F 1.4 °F 79% 30.10 in 10.0 mi WNW 6.9 mph - N/A   Overcast
3:24 AM 5.0 °F -5.6 °F -0.4 °F 78% 30.10 in 10.0 mi West 5.8 mph - N/A   Overcast
3:44 AM 5.0 °F -6.9 °F -0.4 °F 78% 30.09 in 10.0 mi West 6.9 mph - N/A   Overcast
4:04 AM 5.0 °F -6.9 °F -0.4 °F 78% 30.10 in 10.0 mi West 6.9 mph - N/A   Overcast
4:24 AM 5.0 °F -5.6 °F -0.4 °F 78% 30.08 in 10.0 mi West 5.8 mph - N/A   Overcast
4:44 AM 5.0 °F -5.6 °F -0.4 °F 78% 30.08 in 10.0 mi West 5.8 mph - N/A   Overcast
5:04 AM 5.0 °F -4.1 °F -0.4 °F 78% 30.06 in 10.0 mi West 4.6 mph - N/A   Overcast
5:25 AM 5.0 °F -4.1 °F -0.4 °F 78% 30.07 in 10.0 mi WSW 4.6 mph - N/A   Overcast
5:45 AM 3.2 °F -4.2 °F -0.4 °F 85% 30.07 in 10.0 mi SW 3.5 mph - N/A   Overcast
6:05 AM 3.2 °F -6.2 °F -0.4 °F 85% 30.07 in 10.0 mi SW 4.6 mph - N/A   Overcast
6:25 AM 3.2 °F - -0.4 °F 85% 30.05 in 10.0 mi Calm Calm - N/A   Overcast
6:44 AM 1.4 °F -6.2 °F -2.2 °F 85% 30.04 in 10.0 mi SW 3.5 mph - N/A   Overcast
7:04 AM -0.4 °F - -4.0 °F 85% 30.04 in 10.0 mi Calm Calm - N/A   Overcast
7:24 AM 1.4 °F -6.2 °F -4.0 °F 78% 30.03 in 10.0 mi SSW 3.5 mph - N/A Snow Light Snow
7:44 AM -0.4 °F -8.3 °F -4.0 °F 85% 30.02 in 10.0 mi South 3.5 mph - N/A   Overcast
8:04 AM -0.4 °F -8.3 °F -4.0 °F 85% 30.02 in 10.0 mi SSW 3.5 mph - N/A Snow Light Snow
8:24 AM -4.0 °F -14.6 °F -5.8 °F 92% 30.01 in 10.0 mi South 4.6 mph - N/A   Clear
8:44 AM -4.0 °F -14.6 °F -7.6 °F 85% 30.01 in 10.0 mi South 4.6 mph - N/A   Clear
9:04 AM -0.4 °F -12.0 °F -4.0 °F 85% 30.00 in 10.0 mi South 5.8 mph - N/A   Clear
9:24 AM -0.4 °F -12.0 °F -4.0 °F 85% 30.00 in 10.0 mi South 5.8 mph - N/A   Clear
9:45 AM -0.4 °F -14.7 °F -4.0 °F 85% 29.99 in 5.0 mi South 8.1 mph - N/A Snow Light Snow
10:05 AM -0.4 °F -16.7 °F -4.0 °F 85% 29.97 in 7.0 mi South 10.4 mph - N/A   Overcast
10:25 AM 1.4 °F -9.9 °F -2.2 °F 85% 29.94 in 10.0 mi SSE 5.8 mph - N/A   Mostly Cloudy
10:44 AM 1.4 °F -13.5 °F -0.4 °F 92% 29.93 in 10.0 mi SSE 9.2 mph - N/A   Scattered Clouds
11:04 AM 3.2 °F -13.1 °F -0.4 °F 85% 29.91 in 5.0 mi SSE 11.5 mph - N/A   Scattered Clouds
11:25 AM 3.2 °F -13.1 °F 1.4 °F 92% 29.89 in 7.0 mi South 11.5 mph - N/A   Scattered Clouds
11:45 AM 5.0 °F -10.0 °F 1.4 °F 85% 29.87 in 10.0 mi SSE 10.4 mph - N/A   Mostly Cloudy
12:04 PM 5.0 °F -12.3 °F 1.4 °F 85% 29.84 in 10.0 mi SSE 13.8 mph - N/A   Overcast
12:24 PM 6.8 °F -9.3 °F 1.4 °F 79% 29.82 in 10.0 mi South 12.7 mph - N/A   Overcast
12:44 PM 8.6 °F -8.9 °F 1.4 °F 73% 29.81 in 10.0 mi South 16.1 mph - N/A   Overcast
1:04 PM 8.6 °F -8.9 °F 1.4 °F 73% 29.79 in 10.0 mi SSE 16.1 mph - N/A   Overcast
1:25 PM 8.6 °F -8.3 °F 3.2 °F 79% 29.75 in 10.0 mi SSE 15.0 mph - N/A   Overcast
1:44 PM 8.6 °F -8.3 °F 3.2 °F 79% 29.73 in 10.0 mi SSE 15.0 mph - N/A   Overcast
2:04 PM 8.6 °F -10.0 °F 3.2 °F 79% 29.71 in 10.0 mi SSE 18.4 mph 21.9 mph N/A   Overcast
2:25 PM 10.4 °F -6.6 °F 3.2 °F 73% 29.69 in 7.0 mi SSE 16.1 mph 20.7 mph N/A   Overcast
2:45 PM 10.4 °F -7.2 °F 3.2 °F 73% 29.66 in 5.0 mi SE 17.3 mph 23.0 mph N/A   Haze
3:05 PM 10.4 °F -7.2 °F 5.0 °F 79% 29.65 in 1.0 mi SSE 17.3 mph 23.0 mph N/A Snow Light Snow
3:24 PM 10.4 °F -8.6 °F 6.8 °F 85% 29.62 in 0.5 mi SSE 20.7 mph - N/A Snow Light Snow
3:44 PM 10.4 °F -7.7 °F 6.8 °F 85% 29.62 in 1.8 mi SSE 18.4 mph 25.3 mph N/A Snow Light Snow
4:05 PM 12.2 °F -5.8 °F 8.6 °F 85% 29.59 in 1.0 mi SSE 19.6 mph 26.5 mph N/A Snow Light Snow
4:25 PM 12.2 °F -4.8 °F 8.6 °F 85% 29.57 in 2.0 mi SSE 17.3 mph - N/A Snow Light Snow
4:45 PM 12.2 °F -6.7 °F 10.4 °F 92% 29.54 in 2.0 mi SSE 21.9 mph 25.3 mph N/A   Overcast
5:04 PM 12.2 °F -4.8 °F 10.4 °F 92% 29.54 in 2.5 mi SSE 17.3 mph 25.3 mph N/A   Overcast
5:24 PM 12.2 °F -5.3 °F 10.4 °F 92% 29.53 in 4.0 mi South 18.4 mph - N/A   Mostly Cloudy
5:44 PM 12.2 °F -3.7 °F 10.4 °F 92% 29.52 in 7.0 mi South 15.0 mph - N/A   Scattered Clouds
6:04 PM 14.0 °F -1.4 °F 10.4 °F 86% 29.50 in 7.0 mi South 15.0 mph 21.9 mph N/A   Clear
6:25 PM 14.0 °F -2.0 °F 12.2 °F 93% 29.45 in 10.0 mi South 16.1 mph 19.6 mph N/A   Clear
6:45 PM 14.0 °F -0.8 °F 12.2 °F 93% 29.42 in 10.0 mi South 13.8 mph - N/A   Clear
7:05 PM 14.0 °F -0.8 °F 12.2 °F 93% 29.44 in 10.0 mi South 13.8 mph - N/A   Clear
7:24 PM 17.6 °F 2.7 °F 14.0 °F 86% 29.43 in 10.0 mi South 16.1 mph - N/A   Mostly Cloudy
7:44 PM 17.6 °F 4.3 °F 14.0 °F 86% 29.41 in 10.0 mi South 12.7 mph - N/A   Overcast
8:04 PM 19.4 °F 8.6 °F 15.8 °F 86% 29.41 in 10.0 mi SSW 9.2 mph - N/A Snow Light Snow
8:25 PM 21.2 °F 8.3 °F 17.6 °F 86% 29.39 in 10.0 mi South 13.8 mph - N/A   Overcast
8:45 PM 21.2 °F 10.9 °F 17.6 °F 86% 29.37 in 10.0 mi SSW 9.2 mph - N/A   Overcast
9:05 PM 21.2 °F 11.7 °F 19.4 °F 93% 29.36 in 10.0 mi SSW 8.1 mph - N/A   Scattered Clouds
9:25 PM 24.8 °F 15.3 °F 21.2 °F 86% 29.35 in 10.0 mi SW 9.2 mph - N/A   Clear
9:44 PM 28.4 °F 18.5 °F 23.0 °F 80% 29.35 in 10.0 mi SW 11.5 mph - N/A   Clear
10:04 PM 28.4 °F 19.1 °F 23.0 °F 80% 29.34 in 10.0 mi WSW 10.4 mph - N/A   Clear
10:24 PM 30.2 °F 20.8 °F 24.8 °F 80% 29.34 in 10.0 mi WSW 11.5 mph - N/A   Clear
10:44 PM 30.2 °F 19.8 °F 26.6 °F 86% 29.33 in 10.0 mi WSW 13.8 mph 18.4 mph N/A   Clear
11:04 PM 32.0 °F 22.1 °F 26.6 °F 80% 29.33 in 10.0 mi WSW 13.8 mph 19.6 mph N/A   Clear
11:24 PM 32.0 °F 22.5 °F 26.6 °F 80% 29.32 in 10.0 mi WSW 12.7 mph 19.6 mph N/A   Clear
11:44 PM 32.0 °F 22.1 °F 26.6 °F 80% 29.33 in 10.0 mi WSW 13.8 mph 19.6 mph N/A   Mostly Cloudy